Theta_e
314 313 314 315 316 316 313 311 313 315 316 321 327 324 316 318 325 325 321 318 323 326 324 321 316 312 310 309 307 307 306 305 306 306 307 308 310 313 314 314 315 316 319 322 322 323 324 324 323 323 323 324 325 325 325 324 325 326 325 324 323 323 323 324 323 322 320 318 319 321 322 321 317 311 311 311 307 305 308 311 312 312 312 312 313 313 313
317 315 315 315 315 315 313 310 309 311 314 317 320 320 316 316 319 319 318 320 323 322 319 314 310 308 308 306 305 306 305 304 305 305 305 305 307 309 311 313 314 314 316 319 320 321 322 322 322 322 322 323 324 324 323 324 325 325 324 324 324 324 324 324 322 321 319 317 319 321 321 318 313 312 312 309 306 306 309 312 314 314 313 314 313 313 313
319 317 317 317 315 315 316 312 308 308 313 316 316 316 315 316 318 319 320 323 321 316 312 308 307 307 306 305 305 304 304 304 304 304 304 305 306 307 308 310 312 313 314 315 317 320 320 320 321 322 322 323 323 323 323 323 324 324 323 324 324 324 324 324 322 320 318 318 320 321 318 316 316 315 312 307 306 308 309 312 315 314 315 315 314 314 314
318 316 317 318 317 316 317 315 310 309 311 313 314 314 314 316 319 321 322 322 318 312 308 307 307 306 305 305 304 303 303 304 305 305 305 305 307 308 309 310 311 313 313 312 314 318 319 320 321 321 322 322 322 323 323 322 322 323 323 323 323 323 323 323 321 320 319 320 320 318 317 318 319 317 310 306 308 309 309 312 314 315 316 316 315 315 314
319 315 315 318 318 318 318 314 309 309 310 311 313 314 313 314 317 319 320 320 315 310 308 307 306 305 305 305 303 303 303 303 304 304 304 304 306 307 309 311 312 313 313 311 311 313 316 319 320 320 320 321 321 321 321 320 321 322 322 321 322 322 322 322 321 320 320 320 318 317 318 320 321 319 314 310 311 312 313 315 316 316 316 317 317 316 315
319 314 315 318 319 319 316 311 308 308 309 310 313 314 312 312 314 316 318 316 312 308 307 307 305 305 305 304 303 302 302 302 303 303 303 303 304 306 308 309 310 311 312 311 311 310 311 313 314 315 317 318 319 319 319 319 319 320 321 321 321 321 321 320 320 320 320 319 317 318 320 320 321 321 319 317 317 318 318 319 319 319 318 317 318 318 317
317 314 316 320 320 316 312 309 308 307 307 308 310 311 310 310 312 314 314 312 309 307 306 305 304 304 303 303 303 302 302 302 303 303 303 303 304 305 306 307 307 307 307 308 308 307 307 308 310 311 312 314 316 317 317 319 318 317 318 318 317 318 318 318 318 318 319 319 319 319 320 320 320 321 320 320 321 321 321 321 321 321 320 319 319 319 318
315 316 318 318 316 312 309 309 308 306 307 308 309 312 311 308 310 312 310 308 306 305 304 304 303 303 303 302 302 302 303 303 303 303 303 304 304 305 305 305 305 305 305 305 306 305 305 306 307 308 308 309 311 312 313 315 315 314 315 315 313 312 313 314 315 315 316 318 318 318 318 318 319 319 319 319 319 319 319 321 321 321 321 320 320 320 319
314 317 316 314 314 312 310 309 307 305 306 307 308 311 311 308 309 309 308 307 306 304 304 303 303 303 304 302 301 301 302 303 303 303 304 304 305 306 306 306 306 306 306 306 306 306 306 306 306 307 307 307 307 307 308 310 310 310 312 312 311 309 310 311 311 311 312 313 314 315 314 314 315 316 315 316 316 316 316 318 319 319 320 320 320 320 320
314 317 316 315 316 314 310 308 306 304 305 305 306 309 311 309 308 308 307 306 305 304 304 304 304 305 305 303 300 299 300 301 301 302 302 303 304 306 306 307 307 307 308 308 308 308 308 308 308 308 308 309 308 308 308 308 308 308 308 308 308 308 308 309 310 309 310 311 313 313 312 313 313 313 312 312 312 311 312 314 317 318 318 319 319 319 319
313 316 315 314 315 312 308 306 305 304 304 304 305 311 313 309 307 307 307 305 304 304 304 303 305 307 306 302 300 299 300 300 300 300 301 301 302 304 305 306 307 307 307 308 308 309 309 309 309 309 309 310 310 310 308 308 308 309 308 308 307 307 306 308 308 307 306 307 309 308 307 309 311 310 310 310 309 308 309 310 312 314 316 317 318 318 318
311 311 311 310 311 309 307 305 304 303 303 304 309 315 314 308 306 307 306 304 304 304 304 304 304 305 304 301 299 299 300 301 300 300 300 301 301 301 302 303 304 305 306 307 308 308 308 307 307 307 308 309 310 309 308 307 307 306 304 305 306 305 304 306 307 306 306 305 306 305 304 305 305 305 305 307 307 308 308 308 309 311 312 313 315 315 315
310 310 310 309 309 307 305 303 302 302 304 308 313 314 310 304 305 307 305 304 305 305 305 304 302 301 301 300 299 299 300 300 300 300 300 300 300 300 300 299 300 302 303 304 305 305 304 302 302 303 304 306 307 306 306 306 305 303 301 301 302 302 302 303 304 305 306 306 305 305 304 304 304 304 304 304 304 304 305 305 306 307 307 308 309 309 310
308 308 309 309 308 306 302 301 302 303 307 312 311 306 304 303 305 306 305 304 305 305 304 303 301 300 300 300 300 300 300 300 300 300 300 300 300 300 300 299 298 299 299 300 301 301 300 300 300 300 301 302 302 302 303 303 302 300 300 300 300 300 300 301 301 302 303 303 303 303 302 302 301 302 303 302 302 302 302 302 303 304 305 305 305 304 304
306 308 309 310 309 305 301 302 304 305 307 309 305 302 303 304 305 306 304 304 305 305 302 301 301 300 299 300 300 299 299 300 300 300 300 300 300 300 300 299 298 298 299 300 300 300 300 300 299 299 299 300 300 300 301 301 300 299 299 299 299 299 299 299 299 299 299 300 300 300 300 300 300 300 300 300 300 300 300 301 302 302 303 303 303 302 302
307 309 308 306 306 303 301 302 304 303 303 304 303 302 302 303 304 304 303 303 304 305 302 300 300 299 299 299 298 298 299 299 300 300 300 300 300 300 300 300 299 299 299 299 300 300 300 300 300 299 299 299 299 299 299 299 299 299 299 298 298 298 298 298 298 298 298 298 298 298 298 298 298 298 299 299 299 299 299 299 299 299 300 300 300 300 300
304 306 305 303 302 301 301 301 301 301 302 302 303 303 302 302 303 303 302 301 301 302 301 299 299 298 298 298 298 299 299 299 299 300 299 299 300 300 300 300 300 299 299 299 299 300 299 299 299 299 299 299 299 299 299 299 299 298 298 297 297 297 296 297 297 297 297 297 297 298 298 298 298 298 298 298 298 298 298 298 298 298 298 298 298 298 299
302 303 302 301 301 301 301 301 301 302 303 302 303 303 302 302 302 301 301 300 299 300 300 299 299 299 299 299 299 299 300 300 299 299 299 299 299 299 300 300 300 300 300 299 299 299 299 299 299 299 299 299 299 299 299 298 298 297 297 296 296 296 296 296 296 296 297 297 297 297 297 297 297 297 298 298 298 298 298 298 298 298 298 298 298 298 298
303 304 302 300 301 301 301 301 301 302 302 303 303 304 303 302 302 302 301 301 301 301 301 301 300 300 300 299 300 300 300 300 299 299 299 298 298 298 298 299 299 299 299 299 299 299 299 299 299 299 299 299 299 299 298 298 297 297 296 296 295 295 296 296 296 296 296 296 296 296 297 297 297 297 297 297 297 297 297 297 297 297 297 297 297 297 297
303 303 301 300 301 301 301 301 301 301 302 302 302 303 303 303 303 303 302 303 302 302 302 301 301 300 300 300 300 300 300 299 299 299 299 299 298 298 298 298 298 298 299 299 299 299 299 299 299 298 299 299 298 298 298 297 297 296 296 296 296 295 295 295 295 295 295 295 296 296 296 296 296 296 296 296 296 297 297 297 297 297 297 297 297 297 297
302 302 300 300 302 302 301 302 301 301 302 302 301 302 303 303 303 303 303 303 302 302 302 301 301 300 300 300 300 300 300 300 300 299 299 299 298 298 297 297 297 297 298 298 298 299 298 298 298 298 298 298 298 298 297 297 297 297 296 296 296 295 295 295 295 295 295 295 295 295 295 295 295 295 295 296 296 296 296 296 296 296 297 297 297 297 297
305 304 302 301 302 302 301 301 302 302 302 302 302 303 303 303 303 303 302 302 302 302 302 301 301 301 301 300 300 300 300 300 300 299 299 298 297 297 297 296 296 296 297 298 298 298 298 298 298 298 298 298 298 298 297 297 297 297 297 296 296 296 295 295 295 295 295 295 295 295 295 295 295 295 295 295 295 295 296 296 296 296 296 296 296 297 297
305 304 302 301 302 302 301 301 302 303 302 303 303 303 303 303 302 302 301 301 302 302 301 301 301 301 300 300 300 300 299 299 299 298 298 297 297 297 297 296 296 296 296 297 297 297 298 298 298 297 297 298 298 297 297 296 297 297 297 296 296 296 296 295 295 295 295 295 295 295 294 294 295 295 295 295 295 295 295 295 295 295 295 295 295 295 296
302 302 302 301 301 301 301 301 302 302 301 301 301 301 301 301 301 300 300 300 300 300 300 300 300 300 300 300 299 299 298 298 298 297 297 297 297 296 296 296 296 296 296 296 297 296 296 297 297 296 297 297 297 297 297 297 297 297 297 297 296 296 295 295 295 294 295 295 295 295 294 294 295 295 295 295 295 295 295 295 295 295 295 295 295 295 295
303 302 301 301 301 301 301 301 301 300 300 300 300 299 299 299 299 299 299 299 299 299 299 300 299 299 299 299 298 298 297 297 297 297 297 297 296 296 295 295 295 295 296 296 296 295 294 294 294 295 296 297 297 297 297 296 296 297 297 296 296 296 295 295 295 294 295 295 295 295 294 294 295 295 295 295 295 295 295 295 295 295 296 296 296 296 296
303 302 301 301 301 301 301 301 300 300 300 300 299 299 299 298 298 298 298 298 299 299 299 299 299 299 299 298 298 297 297 296 297 297 296 296 295 295 295 295 295 295 294 294 294 294 293 292 293 294 295 297 298 297 297 296 296 296 297 296 296 296 296 296 295 295 294 295 295 294 293 294 294 294 295 295 295 295 295 296 296 296 297 297 297 297 297
302 302 301 301 300 301 301 301 301 300 300 299 299 299 299 298 298 298 297 297 298 298 299 299 299 299 298 298 298 297 297 296 296 296 296 295 295 295 295 295 294 295 295 294 294 294 293 292 293 294 295 297 297 297 297 296 296 296 296 297 297 296 296 296 295 295 294 295 295 294 293 293 293 294 294 294 294 294 295 296 297 297 297 298 297 297 297
301 301 301 301 300 300 300 301 301 300 299 299 299 298 298 298 298 297 297 297 297 297 298 298 298 298 298 297 297 297 296 296 296 296 295 295 295 295 295 295 295 295 295 294 294 294 293 292 293 295 296 297 297 297 297 297 297 297 296 297 297 296 296 296 295 294 295 295 294 293 293 293 294 294 294 294 295 295 296 296 297 297 297 298 297 297 297
301 301 301 301 300 300 300 300 300 300 299 298 298 298 298 297 297 297 297 297 297 297 297 297 297 297 297 297 296 296 296 296 296 295 295 295 295 295 295 295 295 294 294 294 294 294 293 292 293 295 297 297 297 297 297 297 297 297 296 297 297 296 296 296 294 294 295 295 294 293 293 294 294 294 294 295 295 296 296 296 296 296 297 297 297 297 297
300 300 300 300 300 299 299 299 299 299 298 298 298 298 297 297 297 297 297 297 297 297 297 297 297 296 296 296 296 296 296 295 295 295 295 295 295 295 295 295 294 294 293 293 293 293 291 291 293 296 297 297 297 297 297 297 297 297 296 297 296 296 296 295 294 294 295 295 294 293 294 294 294 294 295 295 296 295 295 296 296 296 297 297 297 297 297
300 299 299 299 299 299 298 298 298 298 298 298 298 297 297 297 297 297 297 297 297 297 297 297 296 296 296 296 295 295 295 295 295 295 295 295 295 295 294 294 293 293 292 292 291 291 290 290 293 296 296 297 297 297 297 297 297 296 296 297 296 296 296 295 294 294 295 294 294 293 294 294 294 295 295 295 295 295 295 295 295 296 296 296 296 296 297
299 298 298 298 298 298 298 298 298 298 297 298 298 297 297 297 297 297 297 297 297 297 296 296 296 296 296 295 295 295 295 295 295 295 295 294 294 293 292 292 291 291 290 290 289 289 289 290 293 296 296 297 297 297 297 297 297 296 296 297 296 296 296 295 294 294 295 294 294 293 293 294 295 295 295 295 295 294 294 294 294 295 296 296 296 296 296
298 298 298 298 298 298 298 298 298 298 297 297 297 297 297 297 297 297 297 297 297 297 296 296 296 296 295 295 295 295 295 295 295 295 294 293 293 292 292 292 291 290 290 289 289 290 291 291 294 296 297 297 297 297 297 297 297 296 297 296 296 296 296 294 294 295 295 295 294 293 293 294 295 295 295 295 294 294 294 294 294 295 296 295 295 295 295
298 298 298 298 298 298 298 298 298 298 297 297 297 297 297 297 296 296 297 297 297 297 297 296 296 296 295 295 295 295 295 295 295 294 293 292 293 294 294 294 293 293 292 292 292 293 293 293 294 296 297 297 297 297 297 297 296 296 297 296 296 296 295 293 294 295 295 295 294 294 293 293 294 295 295 295 294 294 294 294 294 295 295 294 294 294 294
298 298 298 298 299 299 298 298 298 297 297 297 297 297 297 297 296 296 297 297 296 297 296 296 296 296 295 295 295 295 295 295 294 293 292 293 295 295 295 294 294 293 293 293 294 294 294 294 295 296 297 297 297 297 297 297 296 296 297 296 296 295 294 293 294 295 295 295 295 295 294 293 294 294 295 294 294 294 293 294 294 295 294 294 294 294 294
298 298 298 299 299 299 298 298 298 297 297 297 296 297 297 297 296 296 297 297 297 297 296 296 296 296 295 295 295 295 295 295 293 292 293 295 295 295 294 294 294 293 293 294 294 294 294 295 295 296 297 297 297 297 297 296 296 297 297 296 296 295 293 292 293 295 295 295 294 294 294 294 294 294 294 294 293 293 293 293 294 294 294 294 294 294 294
298 298 298 298 298 298 298 298 297 297 297 297 297 297 297 296 296 296 297 297 297 297 296 296 296 296 295 295 295 295 295 294 292 291 293 295 295 295 295 295 294 294 295 295 295 295 295 296 296 296 297 297 297 297 296 296 296 296 296 296 295 294 293 292 293 295 295 294 294 294 294 294 294 294 294 294 293 293 293 293 293 294 294 294 294 294 294
298 298 298 297 297 298 297 297 297 297 297 297 297 297 297 297 296 296 296 296 297 297 296 296 296 296 295 295 295 295 294 293 291 291 293 295 295 295 294 294 294 295 296 295 296 296 296 296 297 297 297 297 297 296 295 295 295 296 296 296 295 294 293 292 293 294 295 294 294 294 294 293 294 294 294 294 293 293 292 292 293 293 293 294 294 293 293
298 298 297 297 297 297 297 297 297 297 297 297 297 297 297 297 297 296 296 296 296 296 296 296 296 296 295 295 295 295 294 293 292 291 292 293 294 294 293 293 294 296 296 296 296 296 297 297 297 297 297 296 295 293 293 293 294 295 296 295 294 294 293 293 293 293 294 294 294 294 294 293 294 294 294 293 293 292 292 292 292 292 293 293 293 293 292
298 298 298 297 297 297 297 297 297 297 297 297 297 297 297 297 297 296 296 296 296 296 296 296 296 296 295 295 295 294 293 293 292 292 291 291 292 293 293 292 294 296 297 296 296 297 297 297 296 295 294 293 292 291 291 292 293 294 295 295 295 294 294 293 292 292 293 294 294 293 293 293 293 294 294 293 292 292 292 291 291 292 292 293 292 292 292
298 298 298 297 297 297 297 297 297 297 297 297 297 297 297 297 297 297 297 297 297 297 296 296 296 295 295 295 295 294 293 293 292 292 291 291 291 292 292 292 293 295 296 296 296 297 297 296 294 293 292 291 291 291 291 291 291 293 295 295 295 294 294 293 292 291 292 293 294 293 292 292 292 293 293 292 292 292 292 292 292 292 293 293 292 292 292
298 298 298 298 298 298 298 297 297 297 297 297 297 297 297 297 297 297 297 297 297 297 297 297 296 296 296 295 295 294 293 293 293 292 291 291 291 291 291 291 292 293 295 295 295 295 295 294 293 293 292 291 291 291 291 292 293 294 295 295 295 295 294 293 292 291 291 292 294 294 293 292 292 293 292 292 291 292 292 292 293 293 293 293 293 292 292
298 298 298 298 298 298 298 298 298 297 297 297 297 297 297 297 297 297 297 297 297 297 297 297 297 297 296 295 295 295 294 294 293 292 291 291 291 291 291 291 291 292 293 293 294 294 294 294 293 292 292 290 290 290 291 292 293 294 295 295 295 295 294 294 293 292 291 291 293 294 294 293 293 292 292 291 291 292 292 293 293 293 294 293 293 293 292
298 298 298 298 298 298 298 298 298 297 297 297 297 297 297 297 297 297 297 297 297 297 297 297 297 297 296 295 295 295 295 294 293 293 292 291 291 291 291 291 291 291 292 292 292 293 293 293 292 292 291 289 289 289 290 291 292 294 295 295 295 295 294 294 293 292 291 291 291 292 293 293 293 293 292 291 291 292 292 292 292 293 293 293 293 293 292
298 298 298 298 298 297 297 298 297 297 298 297 297 297 297 297 297 297 297 297 297 297 297 297 297 297 297 296 296 295 295 295 294 293 292 292 291 291 291 291 291 291 291 291 291 292 292 292 292 292 291 289 288 288 290 290 291 293 294 295 295 295 294 294 293 293 292 291 290 290 291 292 293 293 293 292 292 292 292 291 291 292 292 293 293 293 292
297 297 298 298 297 297 297 297 297 297 297 297 297 297 297 297 297 297 297 297 297 297 297 297 297 297 297 296 296 295 295 295 295 294 294 293 291 291 291 291 291 291 291 291 291 291 292 292 292 292 292 290 288 288 289 290 291 292 294 294 295 294 294 294 293 293 293 292 291 290 290 290 292 293 293 293 292 292 292 291 291 292 292 293 293 293 292
297 297 297 297 297 297 297 297 297 297 297 297 297 297 297 297 297 297 297 297 297 297 297 297 297 297 297 296 296 295 295 295 295 295 294 293 292 291 291 291 291 291 291 290 290 290 291 292 292 292 292 290 288 288 288 289 290 291 293 294 294 294 294 293 293 293 293 292 292 291 290 289 290 291 292 293 293 293 292 292 291 291 292 292 292 292 292
297 297 297 297 297 297 297 297 297 297 297 297 297 297 297 297 297 297 297 297 297 297 297 296 296 297 297 296 296 296 295 295 295 295 294 294 293 292 291 291 291 291 291 290 288 288 289 290 290 290 289 288 288 288 288 288 289 291 292 293 294 293 293 292 292 292 292 292 292 291 290 289 289 289 291 292 293 293 293 293 292 291 291 291 291 291 291
297 297 297 297 297 297 297 297 297 297 297 297 297 297 297 297 297 297 297 297 296 296 297 296 296 296 296 296 296 296 296 295 295 295 295 295 294 292 291 290 290 291 290 289 288 287 287 287 287 287 287 287 287 287 288 288 288 289 291 292 292 292 291 290 290 291 291 291 291 290 290 289 289 289 289 290 291 292 293 293 293 292 291 290 290 290 290
297 297 297 297 297 297 297 297 297 297 297 297 297 297 297 296 297 297 297 297 296 296 296 296 296 296 296 296 296 296 296 296 296 295 295 295 294 293 291 290 289 289 289 288 287 287 288 287 287 287 287 287 287 287 287 287 288 289 290 290 290 290 289 289 289 289 289 290 290 290 289 289 289 288 288 289 290 290 291 292 292 292 291 290 290 289 289
297 296 296 296 297 297 297 297 296 297 297 296 296 297 297 297 296 296 297 296 296 296 296 296 296 296 296 296 296 296 296 296 296 296 295 295 294 294 292 291 290 290 289 288 287 287 287 287 287 287 287 287 287 287 287 288 288 288 288 288 288 288 288 288 288 288 288 289 289 289 289 289 288 288 288 288 288 289 289 290 291 291 291 291 290 289 289
296 295 295 295 296 296 296 296 296 296 296 296 296 296 296 296 296 296 296 296 296 296 296 296 296 296 296 296 296 296 296 296 296 296 295 295 294 294 293 292 291 291 291 291 290 289 288 287 288 288 288 287 287 287 288 288 288 288 287 287 287 287 287 287 287 287 287 288 288 288 288 288 288 288 288 288 288 288 288 288 289 289 290 290 290 289 289
Wind_Speed
2 2 3 4 3 2 3 4 5 8 8 6 5 3 3 4 5 4 4 5 6 5 7 8 7 8 9 9 12 15 18 21 21 22 24 25 25 24 22 22 24 24 24 22 19 18 17 15 12 9 9 12 14 13 14 17 21 25 26 26 27 28 27 26 25 22 21 20 16 13 11 10 10 11 10 9 9 10 10 10 10 8 6 5 5 6 6
1 4 5 5 6 3 2 4 7 8 7 6 5 3 1 3 3 3 4 7 5 4 7 8 9 13 15 15 17 19 20 23 24 25 25 25 27 27 25 24 24 24 24 23 22 21 20 19 17 17 17 17 16 14 14 17 18 20 23 27 30 29 27 25 25 23 23 23 19 14 12 11 12 13 12 11 11 11 12 11 9 8 6 5 4 4 4
2 6 6 6 5 3 2 6 10 11 9 7 5 4 2 2 3 4 6 8 5 5 10 12 13 17 19 17 16 17 18 23 28 29 26 26 28 28 26 25 24 23 23 24 24 25 25 23 22 21 19 19 20 19 18 17 17 18 22 27 29 28 26 24 24 24 24 22 19 15 14 15 15 14 13 13 13 12 13 13 11 9 7 6 6 5 4
2 4 5 7 7 3 3 8 13 13 9 6 4 3 3 2 3 6 6 5 4 5 10 13 12 14 16 14 13 15 18 22 27 29 28 28 29 28 25 24 23 22 22 24 25 26 24 19 17 18 16 16 19 20 20 20 18 17 20 24 25 25 24 22 21 21 22 21 19 18 18 17 16 14 13 13 13 13 14 14 13 11 9 8 8 7 6
2 3 3 4 6 4 3 5 9 9 6 5 5 3 5 6 2 4 3 3 6 8 10 13 10 9 12 12 12 15 18 21 25 26 25 26 28 28 27 25 24 22 23 24 26 26 24 20 19 19 15 14 17 19 20 22 22 20 20 21 22 21 20 19 19 18 19 19 19 20 20 18 17 15 14 14 14 14 14 14 13 12 11 10 9 8 8
1 3 3 3 2 2 1 1 4 6 5 6 5 3 6 8 5 0 2 6 9 8 9 12 11 10 13 15 16 17 19 23 25 25 25 26 28 29 28 27 27 26 25 25 26 27 27 26 26 25 21 19 19 19 19 20 21 22 21 21 20 20 19 18 17 17 17 16 17 18 18 17 17 16 14 14 14 13 13 13 12 13 13 12 10 9 10
1 1 3 3 1 2 1 1 4 5 4 4 4 2 6 10 8 4 6 9 10 10 11 15 19 21 22 22 20 18 19 21 23 23 23 25 29 31 30 29 29 29 29 30 30 30 30 28 27 28 28 27 25 23 19 17 17 21 22 22 22 21 20 19 18 17 16 16 16 16 15 15 17 17 15 14 14 13 13 13 12 12 12 12 11 10 11
1 1 2 2 2 2 1 1 6 6 4 5 4 2 6 10 8 4 8 9 11 14 16 20 26 30 29 26 22 18 18 19 20 20 20 22 27 30 31 30 29 29 29 29 29 29 29 29 28 28 28 28 27 27 24 20 19 21 22 23 23 22 21 19 17 15 14 15 15 14 13 12 13 14 14 13 13 12 12 13 13 12 12 12 11 11 11
2 2 1 1 1 1 2 2 5 5 4 4 4 2 4 7 7 4 8 10 11 14 17 23 28 31 28 22 17 16 18 19 19 19 20 22 24 26 27 27 27 26 26 26 24 23 24 25 25 25 24 24 25 26 26 24 22 22 21 20 20 19 19 17 14 13 13 12 12 12 10 9 10 11 11 11 11 10 10 11 12 11 11 11 11 11 11
2 3 2 1 1 1 1 3 5 5 7 6 3 2 2 5 8 7 9 9 10 13 15 15 17 20 18 9 6 13 19 20 21 21 20 21 22 22 23 23 22 22 22 21 20 19 20 21 20 19 17 17 20 22 22 21 21 20 19 18 16 14 15 14 12 10 10 9 8 6 4 4 5 6 6 6 7 7 7 8 9 9 9 9 10 11 11
2 3 2 1 1 1 2 5 7 11 11 5 2 0 1 5 8 10 12 11 11 12 10 7 3 5 8 2 2 13 20 21 22 22 21 22 22 21 21 20 19 18 17 17 17 16 16 17 15 13 11 11 13 17 17 16 15 15 15 14 11 9 10 10 8 7 7 6 4 2 2 1 3 4 5 5 5 3 2 4 5 7 8 9 10 11 12
3 3 2 1 1 1 3 5 11 17 11 1 2 1 2 6 8 9 14 14 13 9 9 10 8 4 6 6 8 16 21 21 22 22 22 22 22 21 21 19 18 17 14 14 14 14 14 14 12 9 7 6 7 11 11 11 12 14 14 12 8 7 8 7 5 3 3 3 3 4 4 2 4 5 5 7 8 8 9 9 7 7 9 10 11 12 13
3 3 3 1 1 1 4 10 17 17 7 2 1 1 2 8 6 11 16 16 15 12 13 16 12 10 16 17 16 19 21 21 21 21 21 21 21 21 20 18 17 16 15 14 14 14 14 13 11 9 6 5 7 8 6 7 10 13 13 11 9 8 8 7 5 3 2 4 6 7 8 8 8 9 9 10 10 10 12 13 12 11 12 14 15 16 17
2 2 2 1 1 0 8 18 18 10 2 1 2 2 3 5 4 14 16 16 20 22 24 27 25 24 27 25 21 21 20 18 17 18 18 20 20 20 19 18 17 17 18 18 17 17 15 13 12 9 6 7 9 9 7 8 12 12 11 10 9 9 8 7 7 6 5 6 7 8 9 10 10 11 12 13 13 13 14 15 15 16 17 18 19 20 20
2 2 3 2 1 3 15 19 10 4 4 1 2 2 3 5 11 16 16 18 23 26 28 30 30 29 27 24 22 20 17 16 16 16 18 19 19 18 18 18 17 17 19 20 19 18 16 15 13 11 8 10 11 10 10 12 12 11 11 11 10 10 10 9 9 9 9 9 10 10 11 12 12 12 13 14 15 15 16 17 17 18 19 20 21 22 23
2 2 2 1 0 7 15 12 3 3 4 1 3 2 7 10 12 14 17 19 21 25 29 30 29 26 24 23 21 19 18 18 17 16 16 17 18 18 18 18 16 16 17 18 18 18 16 15 14 12 10 11 11 12 13 14 12 11 11 12 11 11 10 9 9 9 9 10 11 11 12 13 13 14 14 15 16 17 19 19 20 20 21 22 23 24 25
3 4 2 1 3 7 9 8 7 6 5 6 8 10 13 13 12 15 20 22 22 26 30 29 25 22 21 21 21 20 19 18 16 15 15 16 16 17 17 16 15 14 15 14 14 15 14 13 13 12 11 10 11 12 13 13 12 12 12 12 12 11 10 10 9 9 9 9 10 10 11 12 13 14 14 15 16 16 17 18 19 20 21 21 22 23 24
4 6 6 4 5 8 9 10 10 10 12 13 13 16 18 17 15 18 23 25 25 26 27 27 24 22 21 20 20 18 17 16 15 15 15 15 15 15 15 15 13 13 13 12 11 13 13 11 11 11 10 9 10 12 12 11 11 11 11 11 11 11 11 11 11 11 11 10 10 10 11 11 12 13 14 14 15 15 16 16 17 18 19 20 21 22 23
3 3 4 5 5 7 9 12 13 14 15 15 15 18 19 18 18 21 23 24 23 22 22 24 23 21 19 18 17 15 14 15 14 13 14 14 14 14 14 13 11 11 11 11 11 11 12 11 9 9 9 9 10 11 10 10 10 10 9 10 10 10 11 12 12 12 12 12 11 11 11 11 11 12 13 14 14 15 16 17 17 18 19 20 21 23 24
2 1 3 4 6 8 8 12 16 18 19 19 18 19 20 19 19 19 18 18 17 18 18 19 20 19 17 16 15 14 12 12 11 11 12 13 13 13 13 11 10 9 9 10 10 10 10 10 9 8 8 8 9 9 9 9 9 8 9 9 10 11 12 12 13 13 13 13 12 12 11 11 11 12 12 13 13 14 15 16 17 17 19 19 20 22 23
3 1 1 2 7 9 9 12 15 18 20 21 20 20 19 18 19 18 16 14 14 14 15 15 15 16 14 12 11 9 8 7 7 8 9 9 10 11 11 11 10 8 8 7 7 8 9 8 7 7 7 7 7 7 7 7 8 8 10 11 11 12 13 13 14 15 16 16 15 15 14 13 13 13 12 12 12 11 11 13 14 15 16 17 18 19 21
1 2 3 3 4 4 5 8 13 16 18 18 18 17 16 15 15 14 14 13 12 11 11 9 9 10 10 9 8 7 6 5 4 4 6 8 9 10 11 10 10 9 8 6 6 6 6 6 5 5 5 4 4 4 4 6 7 8 10 11 12 12 13 14 15 17 18 18 18 18 17 16 15 13 10 9 9 9 10 11 12 13 14 14 15 17 19
3 5 7 6 6 6 7 9 12 14 15 14 14 13 12 11 10 10 11 11 10 8 7 5 4 6 9 9 8 6 4 3 3 4 5 7 8 9 10 9 9 8 7 6 6 6 5 4 5 6 5 4 2 1 2 4 6 8 9 10 11 12 14 15 16 18 19 20 20 20 18 17 15 13 9 7 7 9 10 10 10 11 12 12 13 15 17
4 8 9 6 8 10 10 11 12 12 12 13 13 12 10 9 9 8 7 8 7 7 7 6 6 7 9 8 6 3 2 2 3 4 5 6 7 9 9 8 7 6 5 5 5 5 5 5 6 7 6 3 2 0 2 3 5 8 9 10 11 13 14 15 17 19 20 21 21 20 19 16 14 13 11 9 8 9 9 9 8 8 10 12 13 15 16
8 10 8 7 11 13 12 11 10 10 9 9 10 10 9 8 7 5 3 3 3 4 5 7 9 8 7 5 3 1 2 2 3 3 4 5 7 8 7 6 5 5 5 6 6 6 7 8 8 7 5 3 2 1 1 3 5 8 9 10 11 12 14 16 17 19 21 21 21 21 19 15 12 12 13 13 12 10 7 5 6 7 8 11 12 13 14
10 11 10 11 13 13 11 9 8 7 6 5 5 7 7 6 5 4 3 2 1 1 2 3 5 6 5 3 1 0 1 2 2 3 3 5 7 7 5 4 4 4 5 6 6 7 10 10 7 6 5 4 3 2 2 3 5 8 9 10 10 12 15 16 17 19 21 21 20 20 19 15 11 11 12 13 15 13 9 7 7 7 9 10 10 11 12
10 11 11 11 10 9 8 7 6 5 5 4 3 3 4 4 3 3 4 3 1 1 1 2 3 4 5 4 3 3 3 3 2 2 3 5 5 5 4 4 4 5 6 7 7 8 11 11 6 4 5 4 4 3 3 3 6 9 10 10 10 12 15 16 16 19 20 19 18 20 20 16 13 11 11 12 13 14 13 14 13 12 11 11 12 12 12
11 9 6 5 7 8 7 5 5 5 6 5 3 2 2 2 1 2 3 3 2 1 2 4 5 5 6 5 5 4 4 4 4 4 4 4 4 4 4 5 6 7 8 9 9 9 11 10 4 3 4 5 6 4 3 3 5 9 10 10 11 13 14 15 16 19 19 17 16 17 18 16 14 12 11 11 13 13 13 15 15 14 13 12 12 11 11
10 6 4 5 7 7 5 5 6 6 6 5 4 2 0 1 1 1 1 1 0 2 3 5 6 6 6 5 4 4 4 4 4 5 5 5 4 5 7 8 9 10 11 11 11 10 12 10 4 6 5 6 7 5 4 3 5 8 9 9 11 13 14 15 17 18 17 14 13 15 16 15 14 12 10 11 13 13 13 14 15 14 14 13 12 12 12
8 7 7 7 6 4 2 3 6 6 6 6 5 3 2 2 3 3 3 3 3 4 5 6 6 7 7 5 4 4 4 5 5 6 6 7 8 9 10 11 12 13 13 13 12 12 13 11 5 9 7 7 8 6 4 4 5 8 9 9 11 13 13 15 17 17 15 12 11 13 14 14 12 10 10 11 12 13 14 15 16 15 14 13 13 14 14
9 7 7 7 5 4 3 3 5 6 7 7 7 6 4 5 6 6 6 6 5 5 6 6 7 7 6 4 4 5 5 6 7 8 9 10 11 12 13 14 15 16 15 15 15 14 14 11 6 11 10 8 9 8 5 5 6 7 8 9 11 12 13 15 17 16 13 11 11 11 12 11 10 9 9 11 13 14 15 16 16 16 15 14 14 15 15
8 6 6 6 5 5 5 4 4 5 7 8 7 6 6 6 7 8 9 8 7 5 6 7 7 6 4 3 4 5 6 7 8 10 12 13 13 15 16 17 18 18 17 17 16 14 13 10 7 12 12 10 9 8 6 5 6 7 8 9 11 12 13 15 16 14 11 11 11 10 10 9 9 9 10 11 13 15 16 17 17 17 16 14 14 14 15
8 5 4 5 5 5 6 5 5 4 4 4 4 4 5 6 7 9 10 9 6 5 5 6 5 4 2 3 5 5 7 8 10 12 14 15 16 17 17 17 17 16 16 16 14 14 13 10 9 13 13 11 9 8 6 5 6 6 7 9 11 12 13 15 15 12 10 10 10 10 8 8 8 9 10 11 14 16 17 17 17 16 14 13 14 14 15
7 4 3 4 5 6 6 6 5 4 2 3 4 5 6 8 8 8 8 7 6 5 5 4 4 3 3 4 5 6 8 10 12 15 16 18 18 17 15 14 14 14 14 15 15 15 14 11 11 14 14 12 9 7 5 5 5 6 7 9 11 11 13 14 13 12 10 9 9 8 7 7 7 8 9 11 14 16 18 17 14 12 12 13 14 15 15
8 5 5 5 6 6 6 5 5 5 4 4 5 6 8 9 8 7 7 6 5 4 4 4 4 4 5 5 6 7 9 11 14 16 17 17 15 13 12 12 13 13 12 14 15 15 13 11 13 14 13 12 9 6 5 5 5 5 7 9 10 10 12 13 12 11 11 9 8 8 7 6 5 6 8 10 12 16 18 14 10 10 12 13 14 15 15
7 7 7 7 6 6 6 6 5 5 5 5 6 7 9 10 8 6 6 6 5 4 5 6 6 6 5 6 7 8 9 11 14 16 16 14 11 10 11 12 11 10 8 7 7 7 7 11 14 14 12 10 8 6 5 5 4 5 7 8 8 10 11 12 11 11 11 10 10 10 10 6 2 3 7 9 11 15 17 11 7 10 12 13 14 15 16
7 8 8 8 7 7 7 6 5 5 5 5 6 7 9 8 6 6 6 6 6 6 6 7 7 7 6 6 7 8 9 11 13 14 13 11 8 9 10 10 9 8 5 2 1 4 8 10 11 11 10 8 7 6 6 4 3 5 6 7 7 9 10 11 11 12 12 12 11 11 8 3 1 1 5 7 9 14 15 8 7 10 12 13 14 15 16
6 7 7 6 6 5 6 6 5 5 5 6 7 8 8 7 6 6 6 5 6 6 7 8 8 7 7 8 8 8 8 10 12 13 11 9 8 8 9 8 8 6 3 1 5 6 7 8 8 8 7 7 7 7 5 3 3 4 6 5 6 7 9 11 11 11 12 13 12 8 5 4 4 2 4 6 8 13 13 7 8 10 12 13 14 15 15
4 5 5 6 5 5 5 5 5 6 6 7 8 9 9 8 7 6 5 5 5 6 7 8 8 8 8 9 9 7 7 8 10 11 10 9 9 8 7 7 7 6 3 1 3 4 5 5 5 6 7 8 8 7 5 3 3 4 4 4 5 7 9 11 11 10 11 13 12 6 5 5 4 3 6 6 8 11 10 5 8 11 13 13 13 13 13
4 4 4 6 6 6 6 6 7 7 8 9 10 10 10 10 9 8 7 7 7 7 7 8 8 9 9 9 8 6 6 7 9 10 10 9 9 8 7 6 5 5 3 2 2 3 3 4 5 6 6 7 7 6 5 5 4 4 4 3 4 6 8 10 11 10 10 11 10 6 5 5 4 4 5 6 7 9 6 4 9 12 13 12 12 12 12
6 6 5 6 6 7 7 8 8 9 9 10 10 9 9 10 10 9 9 8 8 8 8 8 9 9 8 8 6 5 6 6 8 9 10 9 8 8 7 6 5 4 3 3 4 4 4 5 5 5 5 5 6 5 5 5 4 4 4 3 4 6 7 9 11 10 9 9 9 7 5 5 4 3 3 4 5 6 4 7 11 12 11 11 12 12 13
9 9 9 9 9 9 9 8 8 9 10 11 11 10 10 10 10 11 10 10 9 9 9 9 9 9 8 7 7 6 6 7 8 9 10 9 8 7 7 6 6 6 5 4 5 6 6 7 7 6 6 6 6 6 6 6 4 4 5 4 4 6 6 8 10 10 9 8 8 7 5 4 4 2 4 5 3 3 6 8 10 10 10 11 12 13 14
9 10 10 11 11 11 11 10 10 10 11 10 9 10 10 10 10 11 11 12 12 12 11 10 9 8 8 8 7 6 5 6 7 9 9 8 7 7 7 7 7 7 7 6 6 7 7 8 8 7 8 8 8 8 7 7 5 5 5 5 5 6 7 7 9 10 10 8 7 6 6 4 2 2 4 3 4 7 7 8 9 8 7 9 10 11 12
9 9 10 11 11 11 11 11 12 12 12 11 9 9 10 12 12 12 12 13 14 14 13 11 9 7 6 7 7 6 4 5 7 8 9 9 8 7 7 6 6 7 7 6 7 7 7 7 7 7 8 8 8 8 7 7 7 7 7 6 7 7 7 7 8 9 9 9 7 6 6 5 4 5 4 3 7 8 7 8 8 7 5 6 8 10 10
10 10 11 11 10 10 10 11 12 12 12 12 11 11 11 13 13 13 12 12 12 12 11 10 9 7 5 5 6 6 5 5 7 8 10 10 8 7 6 5 5 6 7 7 8 8 8 8 9 9 9 8 8 8 8 7 7 8 8 7 7 7 7 7 8 8 8 9 8 6 5 4 5 5 3 3 7 8 8 8 8 6 5 5 6 7 8
9 9 9 9 10 10 11 12 12 12 12 12 12 11 11 11 11 11 11 10 10 10 9 9 9 7 6 5 5 5 5 5 6 7 8 9 8 7 6 6 6 7 8 9 10 9 9 10 11 11 10 9 8 8 8 8 8 9 8 8 8 7 7 7 8 8 8 8 8 7 5 4 3 3 2 1 4 6 7 7 7 7 5 3 3 5 6
7 8 8 9 10 10 10 11 11 11 11 12 11 11 10 10 10 10 10 9 9 10 9 8 8 7 6 6 5 5 4 5 6 7 7 8 8 7 7 7 7 7 8 9 10 10 11 12 12 11 11 10 8 8 8 8 8 9 9 9 8 7 7 8 8 8 8 8 7 6 6 4 2 1 1 1 3 5 6 7 8 8 6 3 3 3 3
7 8 9 10 10 10 10 11 11 10 10 11 11 11 10 10 10 9 8 8 9 9 9 7 7 6 6 6 6 5 5 5 6 6 6 8 9 9 7 7 7 7 8 8 8 8 9 11 11 11 11 9 8 7 6 6 7 9 10 10 10 9 8 9 9 8 8 8 7 6 5 4 2 1 1 1 2 4 6 7 9 9 7 5 3 2 0
9 10 11 11 10 10 10 10 9 8 8 9 9 9 9 10 11 10 8 7 7 8 7 6 6 5 5 5 6 6 6 7 7 6 6 8 9 10 9 7 6 7 8 8 7 6 6 7 8 8 8 7 6 5 5 5 6 8 9 10 10 10 10 9 9 9 9 8 7 6 5 5 3 2 1 2 3 3 5 7 8 8 7 6 4 3 3
11 11 11 10 9 10 10 10 8 7 6 6 6 8 8 8 9 9 8 6 5 5 6 6 6 5 5 6 6 7 7 8 8 7 6 6 7 9 10 8 6 6 7 7 7 6 5 5 4 4 4 4 4 4 4 4 5 6 8 9 10 10 10 10 9 9 9 8 7 6 6 5 4 3 2 2 3 4 5 7 8 8 8 7 6 6 7
12 11 10 9 9 9 9 8 6 5 4 4 5 7 8 6 4 4 5 5 4 5 6 6 6 7 7 7 7 7 7 7 7 7 6 6 5 5 7 7 7 7 7 8 8 7 7 6 5 4 3 2 2 3 3 3 4 6 7 9 9 9 9 8 8 8 8 7 7 7 6 6 5 4 3 3 4 5 5 6 7 8 8 8 8 8 9
11 10 8 7 6 6 5 5 4 3 3 3 4 4 5 5 3 2 3 4 4 4 5 5 5 5 5 4 4 5 5 5 5 5 6 5 5 5 5 5 5 6 7 8 9 9 8 7 7 5 3 2 1 2 3 4 5 6 7 7 7 7 7 7 7 7 7 7 7 7 7 6 6 5 4 4 4 5 5 6 7 8 8 8 9 9 9
Wind_Direction
225 308 335 5 35 76 81 40 6 351 347 10 77 136 186 144 143 218 228 142 136 150 132 119 114 108 100 87 86 88 87 86 87 87 88 90 93 96 94 92 93 101 118 137 145 150 162 171 174 163 151 165 179 184 181 178 182 185 185 190 196 196 195 194 194 195 195 195 202 208 204 206 203 193 186 184 182 182 177 168 157 153 152 149 142 131 122
5 12 10 34 55 66 51 34 26 10 356 14 54 65 131 125 140 179 136 111 97 95 105 101 101 107 105 96 93 93 89 88 87 84 82 83 86 90 91 91 93 96 106 123 134 138 140 140 137 133 134 145 150 144 149 163 170 171 176 187 193 191 189 190 193 199 201 199 205 210 205 197 189 184 184 184 182 182 180 175 171 171 176 177 172 160 142
357 8 8 9 29 75 71 23 19 12 4 11 32 28 9 62 101 109 109 102 81 78 98 100 103 107 105 99 93 89 89 92 92 88 85 84 85 87 89 91 96 100 104 111 120 124 121 121 126 131 136 142 138 132 134 144 153 161 170 180 186 187 186 186 190 196 197 200 208 209 196 183 178 180 183 182 183 185 186 187 191 195 196 194 190 184 177
262 352 10 353 353 23 54 24 11 2 1 359 347 340 334 324 119 114 110 108 107 112 107 101 100 102 100 93 88 92 97 98 97 96 94 93 94 93 93 93 95 98 100 100 105 110 110 110 115 117 124 132 130 128 127 128 138 157 167 172 178 180 181 182 185 188 191 197 200 194 184 179 177 179 180 181 184 187 191 194 202 210 213 209 202 199 198
250 327 18 7 357 3 5 9 3 349 335 331 325 330 339 339 43 124 149 134 127 133 121 106 98 89 84 82 85 96 100 98 97 98 96 97 100 102 102 100 97 95 93 91 93 101 109 118 119 114 116 122 122 126 129 125 129 141 149 155 162 167 170 176 180 181 184 188 185 181 180 181 181 179 179 182 185 188 195 201 209 217 222 222 220 219 214
319 315 14 48 27 357 289 304 357 341 322 341 354 8 0 350 350 97 148 122 117 122 119 113 109 90 81 88 94 98 101 101 100 100 98 98 101 103 104 103 101 100 98 95 93 94 99 108 113 113 116 120 123 128 131 128 125 129 135 139 144 151 156 160 165 172 178 180 177 177 181 185 187 187 186 186 188 191 195 201 210 217 222 225 228 229 227
78 339 37 72 187 299 291 295 358 343 320 339 342 359 22 10 359 28 84 104 106 101 99 105 108 103 97 96 96 97 102 103 103 103 103 104 103 102 102 101 99 99 98 98 96 93 93 97 102 107 111 114 119 124 129 136 131 125 129 130 128 134 140 140 143 152 165 173 172 172 178 184 187 187 187 188 192 197 201 205 209 213 217 221 225 227 229
92 63 41 114 186 293 315 14 9 2 356 357 342 332 25 15 360 36 87 97 100 100 103 106 108 108 104 94 85 91 104 105 104 107 107 106 106 105 104 102 100 100 98 96 94 92 92 92 93 96 101 106 112 115 120 131 132 126 127 124 117 116 121 124 128 133 145 161 164 163 169 176 179 180 181 184 189 192 200 206 207 209 214 218 222 227 230
130 112 66 138 178 352 34 25 360 349 327 331 331 316 5 14 11 54 101 107 105 108 114 115 115 111 102 85 69 81 100 105 105 106 106 105 106 108 108 108 106 105 103 100 96 93 92 91 88 89 92 97 103 105 108 113 117 118 119 118 112 108 107 111 114 113 117 132 145 153 162 165 165 170 168 170 180 185 191 203 207 209 214 218 224 230 235
94 104 96 56 18 34 26 330 318 320 311 296 276 273 333 14 27 62 101 108 105 111 115 119 122 114 99 76 49 80 96 103 103 101 102 103 105 108 110 112 112 110 108 108 107 105 100 94 90 89 88 90 97 99 98 100 105 105 102 100 100 98 100 105 107 99 94 105 125 142 156 160 175 186 174 169 182 181 181 198 211 218 224 228 234 240 244
52 87 104 68 68 165 303 307 311 326 328 304 240 234 4 3 25 74 100 97 94 101 93 65 46 111 106 106 120 102 103 106 103 99 100 100 101 105 107 110 113 112 110 110 111 112 108 98 92 89 84 84 91 91 86 87 94 94 89 89 87 78 83 96 101 92 83 84 96 73 47 137 218 254 249 238 248 261 252 234 225 228 237 241 244 248 250
54 69 85 59 51 288 306 311 314 321 323 259 175 71 36 352 12 84 104 98 93 91 78 56 24 33 111 135 137 118 111 109 105 101 99 98 97 98 100 103 108 111 115 117 114 112 106 96 89 84 78 79 85 80 74 72 75 74 72 75 74 52 50 62 68 69 63 34 349 345 351 322 279 288 275 259 266 277 280 277 263 251 254 257 257 258 259
50 61 88 43 325 266 311 319 317 318 318 148 75 11 297 325 6 99 106 101 101 98 97 95 83 92 117 128 132 123 114 110 108 105 104 100 93 90 90 94 102 107 113 117 115 110 104 97 94 89 83 94 94 87 81 69 64 61 56 54 51 38 32 32 24 8 342 317 312 317 322 317 307 303 296 291 289 284 281 282 278 270 266 265 264 266 268
37 85 108 2 263 244 337 330 325 332 5 166 325 341 305 311 102 114 105 102 109 106 106 111 116 121 126 127 128 124 119 117 118 117 114 106 96 90 88 89 94 98 100 101 100 98 94 91 88 84 85 99 97 94 91 74 61 54 45 37 30 20 11 5 358 351 333 317 314 313 313 314 313 309 304 302 302 297 292 290 286 280 275 271 271 274 275
44 65 53 31 172 325 339 337 334 10 40 201 235 10 37 105 124 117 105 109 117 114 113 119 124 126 127 125 124 123 121 123 126 123 116 107 100 95 91 88 90 94 97 98 94 90 86 82 77 71 72 84 85 80 76 66 52 40 31 25 19 11 3 355 348 344 338 332 327 322 317 313 312 310 306 303 302 300 297 294 291 288 285 282 281 282 282
59 69 35 43 314 327 342 355 22 19 357 256 187 96 82 102 114 112 108 114 122 122 121 124 125 125 124 122 121 120 117 119 120 116 109 104 101 98 93 89 88 89 93 95 93 88 85 80 76 68 63 71 75 69 64 56 42 30 22 16 11 9 7 3 357 350 346 341 334 328 323 318 315 312 307 304 302 300 299 298 298 296 295 293 292 291 290
86 95 83 27 4 356 9 44 74 70 71 110 131 118 102 96 100 109 113 117 122 124 124 124 125 126 126 123 120 117 116 115 113 108 103 100 98 97 94 91 87 83 86 90 92 91 87 81 76 70 62 63 66 63 57 46 33 25 19 14 14 17 19 20 17 10 1 351 341 332 325 318 314 312 308 306 303 301 300 299 298 298 299 298 298 297 296
65 62 52 36 23 29 50 71 82 91 102 108 111 108 102 97 101 109 113 117 122 124 124 124 124 124 124 124 122 121 119 115 109 102 99 97 96 94 91 88 84 82 86 90 93 95 92 83 76 69 60 53 54 54 48 38 29 22 17 16 19 22 25 25 21 15 8 358 348 339 330 324 319 315 312 310 307 305 304 302 300 300 300 299 299 298 297
70 53 13 2 22 38 54 74 85 92 98 102 101 101 102 105 109 110 112 116 119 121 122 122 121 122 124 126 129 129 123 115 105 96 92 91 88 85 81 79 79 83 91 97 99 100 97 88 77 68 59 50 47 47 41 35 31 24 19 20 24 26 26 23 17 13 8 1 355 347 338 333 327 322 318 315 313 311 310 307 305 304 302 301 301 300 299
77 173 305 5 58 67 69 81 89 92 96 100 100 101 104 109 111 112 114 115 117 120 121 118 119 124 128 132 135 134 124 111 101 92 87 81 74 70 68 67 71 78 89 98 100 100 98 93 83 71 62 54 51 49 46 45 45 38 33 33 32 30 30 26 21 17 12 7 1 353 345 339 332 327 323 319 318 319 315 310 307 305 303 303 303 303 302
48 31 312 51 72 72 74 87 96 100 103 104 104 106 107 107 108 110 111 110 111 116 117 117 120 126 132 138 138 131 120 108 95 81 71 62 58 57 55 56 59 64 73 86 88 88 91 88 77 67 63 60 58 57 57 59 57 47 40 39 36 33 31 27 22 18 13 7 1 355 350 346 340 338 335 331 331 333 327 319 316 312 309 308 307 305 303
31 243 205 158 105 82 84 99 108 114 114 111 110 111 109 106 108 110 112 116 120 119 117 121 126 129 137 147 148 139 127 110 85 58 43 40 42 42 41 41 41 41 45 51 52 57 69 67 53 42 35 33 40 49 60 62 55 45 39 37 33 30 25 20 16 13 8 4 360 355 352 348 347 351 354 350 347 349 343 334 328 323 319 316 312 309 306
200 200 179 147 112 112 119 119 122 125 124 120 116 115 113 110 109 108 108 115 124 129 131 136 136 136 145 154 157 149 130 98 60 35 26 25 26 24 21 20 22 25 27 27 21 20 24 20 9 358 345 333 342 21 53 57 46 36 33 32 28 22 18 14 11 8 3 360 357 355 353 351 352 357 4 7 2 357 352 344 336 333 331 326 319 315 313
131 155 157 129 108 120 126 124 125 126 122 117 112 112 112 112 112 111 105 107 116 126 135 144 151 152 152 154 152 136 89 55 30 19 15 12 9 5 0 1 5 7 5 360 352 349 347 334 325 329 325 294 239 246 52 50 36 26 24 25 22 17 14 11 7 3 360 357 355 354 353 353 355 355 355 356 1 5 5 1 356 350 342 333 326 323 323
132 148 149 123 118 125 124 121 123 122 117 111 105 102 101 99 101 103 98 102 117 120 128 146 158 164 165 161 155 109 38 26 15 4 357 355 355 351 347 351 355 348 340 334 326 329 337 329 313 308 305 267 222 224 25 30 25 19 17 15 13 10 10 7 2 359 357 355 353 354 356 356 356 357 356 355 357 4 18 33 27 12 353 338 329 326 328
130 140 135 127 128 130 128 130 133 133 133 125 106 101 100 92 84 73 52 52 127 128 118 157 170 173 180 194 222 301 335 345 346 341 338 340 343 344 347 355 356 346 338 334 327 329 338 336 319 297 287 264 236 254 324 4 18 15 10 7 5 4 4 2 358 355 355 353 352 355 358 360 1 2 3 2 360 0 7 14 16 16 13 3 352 344 342
121 129 129 131 138 143 145 148 149 148 153 152 129 116 109 91 74 55 41 47 108 148 194 233 214 198 204 227 250 251 257 277 288 299 316 326 335 343 348 347 340 331 325 325 323 324 332 336 327 293 278 254 230 250 299 345 9 9 5 2 359 359 359 357 354 353 352 351 353 356 360 5 9 8 7 7 3 2 2 0 360 5 12 13 9 0 352
133 131 122 124 139 143 145 150 158 164 168 172 176 162 125 93 82 62 50 59 101 155 211 218 218 226 233 237 241 248 260 274 280 293 312 322 328 328 317 312 312 307 305 311 312 315 324 329 312 251 261 246 230 247 284 317 349 358 359 357 356 356 354 352 352 351 349 351 359 2 4 7 8 6 6 6 3 2 2 360 359 1 3 4 4 1 355
150 142 131 137 140 139 140 154 168 182 192 193 198 204 169 32 350 9 19 14 276 238 241 224 222 235 242 241 248 262 275 284 287 297 309 311 304 299 297 299 302 300 302 308 306 305 317 321 274 207 222 242 237 248 281 306 334 350 354 354 354 353 350 350 351 350 349 355 4 6 5 4 2 3 8 8 4 3 1 358 356 357 356 355 353 351 350
169 162 160 160 155 152 166 175 182 197 210 213 223 235 244 292 313 315 306 297 275 250 242 234 232 236 234 235 259 279 284 293 297 300 303 299 291 291 292 292 294 296 299 302 298 297 310 315 258 197 205 236 241 248 283 309 329 344 350 353 353 350 348 351 351 349 351 1 5 2 1 2 1 4 10 10 7 5 3 0 357 354 350 349 347 344 344
181 176 175 178 177 185 208 213 207 217 228 233 243 252 259 287 308 309 299 291 280 261 247 241 238 236 232 244 279 286 286 294 297 298 303 302 296 294 293 289 291 292 291 291 292 293 301 305 251 198 200 225 239 249 276 307 326 341 349 352 352 349 349 349 349 348 353 3 3 358 359 4 6 6 8 10 8 4 0 360 359 355 348 344 343 343 344
190 178 177 185 193 202 215 225 230 245 258 259 262 274 289 298 302 302 300 297 288 271 259 247 237 231 233 270 292 291 292 300 303 305 308 307 301 297 294 288 287 287 283 284 286 285 288 290 241 201 203 222 237 247 270 301 320 335 347 349 349 348 347 346 346 347 353 3 6 1 358 4 8 6 6 8 6 1 356 354 354 353 350 348 350 352 351
203 192 192 208 221 224 230 239 245 255 272 282 295 319 327 318 306 298 293 289 280 273 269 253 234 229 261 294 302 304 308 313 316 316 314 310 304 301 296 292 289 286 282 281 280 274 273 269 227 204 208 222 235 246 268 296 316 333 343 345 346 346 344 343 344 346 349 360 8 4 357 357 1 1 2 4 1 357 354 351 349 351 358 6 11 8 360
219 239 263 264 268 269 268 270 271 271 287 319 333 341 344 336 321 302 285 275 271 277 276 250 229 242 281 299 309 316 319 322 324 320 316 313 311 308 304 299 294 286 277 274 271 267 263 249 216 201 207 221 233 245 265 293 314 329 337 341 343 343 340 340 344 346 346 350 357 359 355 350 351 354 359 0 356 352 351 350 352 4 21 30 27 19 13
231 265 293 293 289 285 287 293 294 291 299 315 323 332 340 338 326 301 280 273 274 280 275 246 235 258 285 299 310 317 322 325 325 321 319 318 319 317 315 312 306 296 281 271 268 265 252 224 200 196 205 218 228 238 260 290 311 323 330 338 341 338 336 340 346 347 344 341 343 346 340 328 330 350 359 358 354 349 348 353 10 36 47 45 35 27 26
248 272 286 286 278 273 276 284 285 281 289 303 312 325 334 334 322 297 282 276 270 269 261 249 251 268 287 302 311 318 323 325 325 323 324 326 327 327 327 326 324 319 308 289 273 253 214 190 186 192 204 214 224 240 264 285 302 315 326 336 338 334 335 344 349 348 343 340 339 338 333 321 311 356 359 356 353 349 349 1 49 65 55 47 37 31 32
268 275 279 277 272 264 260 262 265 267 276 291 307 322 330 327 312 292 285 278 269 266 262 259 263 274 286 298 307 314 320 326 328 329 330 330 332 333 333 333 334 332 327 329 124 154 168 174 182 192 202 212 228 248 263 273 290 315 326 332 333 332 339 349 351 348 349 351 349 346 349 4 106 56 2 0 357 349 349 11 72 70 55 49 41 34 34
289 288 283 277 271 264 258 256 261 271 282 296 310 319 319 309 292 286 288 282 273 271 266 261 262 268 276 288 300 309 319 329 337 339 336 331 330 329 327 333 343 342 329 131 127 139 158 169 179 192 208 225 240 250 255 256 281 316 325 325 326 333 346 353 351 350 357 360 358 3 34 78 107 70 17 13 2 352 353 23 75 66 55 52 44 36 36
322 311 294 282 276 270 266 265 270 281 294 306 312 312 308 298 286 280 280 279 279 278 271 262 258 264 275 286 296 305 315 330 344 347 339 329 331 331 326 332 345 342 317 198 149 154 167 178 196 217 236 247 249 249 248 247 274 312 315 309 319 337 350 353 349 349 358 2 4 21 68 86 84 47 23 17 5 355 356 43 82 68 58 53 43 37 42
323 313 297 291 283 270 265 271 280 287 292 299 305 306 301 292 283 275 271 277 283 285 280 270 263 266 277 285 291 296 302 320 339 345 337 328 332 335 330 330 340 338 312 271 226 201 204 220 234 244 254 258 255 257 261 263 274 289 285 279 306 333 347 353 352 350 355 2 9 30 74 90 77 45 24 12 1 353 357 74 85 69 58 50 39 38 50
300 295 286 283 278 272 276 285 291 291 290 293 299 302 296 287 280 274 269 273 279 283 286 283 276 274 278 280 275 274 285 303 323 333 331 325 326 329 326 318 316 317 304 269 251 247 247 248 252 263 277 277 271 273 281 283 278 261 244 255 296 319 335 351 357 357 359 5 13 27 59 91 89 57 7 343 347 359 36 81 80 68 57 48 41 44 54
296 290 283 280 277 275 281 287 290 292 292 290 290 290 288 284 280 273 266 262 264 272 282 288 286 283 279 268 255 255 273 291 305 318 324 322 315 313 313 306 297 296 294 271 259 262 259 253 256 272 291 293 285 280 285 292 283 244 229 247 284 302 319 343 357 3 6 10 15 20 33 70 92 56 338 328 359 79 95 91 82 73 62 52 48 51 56
293 289 289 290 285 280 276 274 277 287 294 293 288 285 285 283 279 271 264 260 261 266 273 280 285 284 277 264 253 255 276 296 302 309 319 321 311 304 307 307 298 292 287 275 266 265 259 251 255 270 283 285 276 267 270 280 277 249 238 253 274 288 304 329 348 1 7 13 18 17 17 29 51 359 337 359 102 123 123 109 97 87 70 58 58 61 60
283 283 287 291 291 287 282 276 276 283 290 290 284 282 285 284 280 273 268 267 269 269 269 271 275 277 270 258 254 259 284 306 306 302 306 313 316 314 313 311 303 294 289 281 274 269 260 251 256 272 282 277 264 254 255 266 266 257 254 260 266 274 293 316 336 353 4 11 15 14 11 11 4 351 353 92 129 141 146 133 118 102 76 61 64 67 65
281 282 284 287 289 289 286 284 282 284 285 282 279 284 292 293 287 280 277 275 272 266 261 261 269 275 270 259 260 266 279 294 300 299 300 306 313 320 325 321 306 294 290 285 277 270 262 257 260 272 283 279 261 246 245 254 257 256 256 258 260 265 282 305 322 337 353 4 9 9 6 9 9 2 8 115 148 164 171 158 137 120 97 75 69 69 67
286 289 291 294 294 292 290 288 285 281 279 276 277 286 298 299 290 283 280 273 261 254 254 260 271 276 271 260 259 264 270 282 298 309 313 314 313 312 317 319 312 301 294 286 275 266 260 257 258 265 276 279 265 247 243 248 252 252 252 254 255 261 273 292 306 318 332 348 358 1 357 360 15 18 10 116 175 187 189 171 144 130 123 106 82 76 65
294 298 300 302 302 300 298 296 289 282 278 276 278 286 294 290 280 275 271 261 254 255 261 266 271 269 259 249 249 255 264 282 296 307 319 329 330 322 310 305 304 304 304 298 285 268 255 251 252 259 268 273 266 252 247 247 248 248 248 249 253 258 269 283 293 301 311 324 338 349 349 347 355 26 358 258 217 217 213 189 162 150 152 151 122 95 59
311 311 309 308 307 306 307 305 300 294 287 281 279 281 281 276 272 269 263 256 258 263 266 266 265 260 251 245 246 251 261 278 292 303 317 329 336 337 329 313 303 303 309 312 304 281 260 252 254 260 265 264 258 253 249 246 243 244 246 250 255 262 269 278 284 287 293 302 315 328 334 331 327 314 220 214 221 232 228 207 181 166 163 163 153 137 273
316 313 310 305 302 305 309 310 309 307 299 289 285 287 285 279 275 270 259 249 252 259 259 257 259 260 258 258 260 262 264 271 280 294 308 317 326 336 339 326 306 300 305 312 316 308 287 271 266 268 268 263 256 255 254 249 246 247 250 255 261 267 271 275 276 276 277 283 294 304 310 313 314 302 245 220 215 220 224 214 199 188 185 188 193 209 240
314 312 308 301 294 297 303 305 307 308 304 298 305 317 318 305 285 266 251 238 233 238 242 246 254 261 266 271 275 278 277 273 272 278 289 301 318 335 342 339 331 325 323 324 330 335 329 317 306 302 295 282 266 258 254 253 255 259 263 267 270 272 271 270 268 266 266 271 279 286 289 293 293 284 264 246 236 230 230 230 227 223 219 218 222 235 249
317 315 311 302 295 294 297 299 298 300 303 307 317 331 339 339 312 257 238 231 230 233 238 246 256 263 269 274 277 279 280 278 274 272 273 276 291 316 332 343 356 4 0 354 351 348 345 343 345 347 340 318 285 265 254 253 259 267 272 274 275 271 265 260 257 255 254 256 263 270 276 279 274 262 255 256 255 252 249 248 248 246 243 242 246 256 265
323 323 320 315 310 305 299 293 290 294 309 320 327 335 346 356 350 286 245 232 227 232 241 251 256 259 266 280 288 286 283 281 278 271 264 262 267 280 295 315 343 3 9 9 6 1 356 351 349 349 354 351 303 271 259 258 264 271 276 278 275 267 258 251 248 244 241 241 247 257 264 266 261 253 249 252 258 261 261 261 261 261 260 259 262 268 275